Location: Berlin
(38.3226°N, 75.2177°W)
Time: 22:48:12
(UTC+00:00)

H-2A R/B - Pass Details

Date: 26 October 2020
Orbit: 500 x 540 km, 97.3° (Epoch: 22 November)

Event Time Altitude Azimuth Distance (km) Brightness Sun altitude
Rises 10:41:45 0° 11° (N) 2,644 6.3 -8.4°
Reaches altitude 10° 10:43:51 10° 11° (N) 1,759 5.4 -8.0°
Maximum altitude 10:47:39 87° 280° (W) 531 2.7 -7.3°
Drops below altitude 10° 10:51:28 10° 194° (SSW) 1,769 5.4 -6.5°
Sets 10:53:35 0° 194° (SSW) 2,660 6.3 -6.1°
